Time,TemperatureF,DewpointF,PressureIn,WindDirection,WindDirectionDegrees,WindSpeedMPH,WindSpeedGustMPH,Humidity,HourlyPrecipIn,Conditions,Clouds,dailyrainin,SoftwareType,DateUTC
2013-01-22 00:00:00,49.8,33.4,29.32,NE,35,2.2,3.6,53,0.00,,,0.00,LWC V2.10 B1813,2013-01-22 06:00:00,
2013-01-22 00:05:00,49.6,33.2,29.32,NNE,19,2.2,3.1,53,0.00,,,0.00,LWC V2.10 B1813,2013-01-22 06:05:00,
2013-01-22 00:10:00,49.6,33.2,29.32,NNE,21,2.2,2.2,53,0.00,,,0.00,LWC V2.10 B1813,2013-01-22 06:10:00,
2013-01-22 00:15:00,49.6,33.2,29.32,North,353,0.0,2.7,53,0.00,,,0.00,LWC V2.10 B1813,2013-01-22 06:15:00,
2013-01-22 00:20:00,49.6,33.2,29.32,NNE,23,0.0,0.0,53,0.00,,,0.00,LWC V2.10 B1813,2013-01-22 06:20:00,
2013-01-22 00:25:00,49.5,33.0,29.32,North,11,0.0,0.0,53,0.00,,,0.00,LWC V2.10 B1813,2013-01-22 06:25:00,
2013-01-22 00:30:00,49.5,33.5,29.32,North,7,0.0,2.7,54,0.00,,,0.00,LWC V2.10 B1813,2013-01-22 06:30:00,
2013-01-22 00:35:00,49.5,33.5,29.32,NNE,26,0.0,2.7,54,0.00,,,0.00,LWC V2.10 B1813,2013-01-22 06:35:00,
2013-01-22 00:40:00,49.5,33.5,29.32,NE,36,0.0,0.0,54,0.00,,,0.00,LWC V2.10 B1813,2013-01-22 06:40:00,
2013-01-22 00:45:00,49.6,33.7,29.32,NNE,12,0.0,0.0,54,0.00,,,0.00,LWC V2.10 B1813,2013-01-22 06:45:00,
2013-01-22 00:50:00,49.6,33.7,29.32,NNE,12,0.0,0.0,54,0.00,,,0.00,LWC V2.10 B1813,2013-01-22 06:50:00,
2013-01-22 00:55:00,49.5,33.5,29.32,NE,41,0.0,2.7,54,0.00,,,0.00,LWC V2.10 B1813,2013-01-22 06:55:00,
2013-01-22 01:00:00,49.5,33.5,29.32,NE,50,0.0,0.0,54,0.00,,,0.00,LWC V2.10 B1813,2013-01-22 07:00:00,
2013-01-22 01:05:00,49.3,33.3,29.32,ENE,69,0.0,2.7,54,0.00,,,0.00,LWC V2.10 B1813,2013-01-22 07:05:00,
2013-01-22 01:10:00,49.1,33.2,29.32,ENE,69,2.2,2.2,54,0.00,,,0.00,LWC V2.10 B1813,2013-01-22 07:10:00,
2013-01-22 01:15:00,48.9,33.0,29.32,ENE,62,2.7,2.7,54,0.00,,,0.00,LWC V2.10 B1813,2013-01-22 07:15:00,
2013-01-22 01:20:00,48.7,32.8,29.32,ENE,76,2.7,2.7,54,0.00,,,0.00,LWC V2.10 B1813,2013-01-22 07:20:00,
2013-01-22 01:25:00,48.6,32.7,29.32,East,82,0.0,2.2,54,0.00,,,0.00,LWC V2.10 B1813,2013-01-22 07:25:00,
2013-01-22 01:30:00,48.4,33.0,29.32,East,82,0.0,0.0,55,0.00,,,0.00,LWC V2.10 B1813,2013-01-22 07:30:00,
2013-01-22 01:35:00,48.2,32.8,29.32,East,86,2.2,2.7,55,0.00,,,0.00,LWC V2.10 B1813,2013-01-22 07:35:00,
2013-01-22 01:40:00,48.2,32.8,29.32,East,86,2.2,2.7,55,0.00,,,0.00,LWC V2.10 B1813,2013-01-22 07:40:00,
2013-01-22 01:45:00,48.2,32.8,29.32,East,86,2.2,3.1,55,0.00,,,0.00,LWC V2.10 B1813,2013-01-22 07:45:00,
2013-01-22 01:50:00,48.2,32.8,29.32,East,86,0.0,0.0,55,0.00,,,0.00,LWC V2.10 B1813,2013-01-22 07:50:00,
2013-01-22 01:55:00,48.2,33.2,29.32,East,87,0.0,0.0,56,0.00,,,0.00,LWC V2.10 B1813,2013-01-22 07:55:00,
2013-01-22 02:00:00,48.2,33.2,29.35,East,87,0.0,0.0,56,0.00,,,0.00,LWC V2.10 B1813,2013-01-22 08:00:00,
2013-01-22 02:05:00,48.0,33.5,29.35,East,87,0.0,0.0,57,0.00,,,0.00,LWC V2.10 B1813,2013-01-22 08:05:00,
2013-01-22 02:10:00,48.0,34.0,29.35,East,90,0.0,0.0,58,0.00,,,0.00,LWC V2.10 B1813,2013-01-22 08:10:00,
2013-01-22 02:15:00,47.8,33.8,29.32,East,90,0.0,0.0,58,0.00,,,0.00,LWC V2.10 B1813,2013-01-22 08:15:00,
2013-01-22 02:20:00,47.7,33.6,29.32,East,90,0.0,0.0,58,0.00,,,0.00,LWC V2.10 B1813,2013-01-22 08:20:00,
2013-01-22 02:25:00,47.5,33.4,29.32,East,90,0.0,0.0,58,0.00,,,0.00,LWC V2.10 B1813,2013-01-22 08:25:00,
2013-01-22 02:30:00,47.3,33.3,29.35,ENE,78,0.0,0.0,58,0.00,,,0.00,LWC V2.10 B1813,2013-01-22 08:30:00,
2013-01-22 02:35:00,47.3,33.3,29.35,ENE,78,0.0,0.0,58,0.00,,,0.00,LWC V2.10 B1813,2013-01-22 08:35:00,
2013-01-22 02:40:00,47.1,33.1,29.35,ENE,78,0.0,0.0,58,0.00,,,0.00,LWC V2.10 B1813,2013-01-22 08:40:00,
2013-01-22 02:45:00,46.9,32.9,29.35,ENE,78,0.0,0.0,58,0.00,,,0.00,LWC V2.10 B1813,2013-01-22 08:45:00,
2013-01-22 02:50:00,46.9,32.9,29.35,ENE,73,0.0,0.0,58,0.00,,,0.00,LWC V2.10 B1813,2013-01-22 08:50:00,
2013-01-22 02:55:00,46.8,32.8,29.35,ENE,73,0.0,0.0,58,0.00,,,0.00,LWC V2.10 B1813,2013-01-22 08:55:00,
2013-01-22 03:00:00,46.6,32.6,29.35,ENE,73,0.0,0.0,58,0.00,,,0.00,LWC V2.10 B1813,2013-01-22 09:00:00,
2013-01-22 03:05:00,46.4,32.4,29.35,ENE,73,0.0,0.0,58,0.00,,,0.00,LWC V2.10 B1813,2013-01-22 09:05:00,
2013-01-22 03:10:00,46.4,32.9,29.35,ENE,73,0.0,0.0,59,0.00,,,0.00,LWC V2.10 B1813,2013-01-22 09:10:00,
2013-01-22 03:15:00,46.4,32.9,29.35,ENE,73,0.0,0.0,59,0.00,,,0.00,LWC V2.10 B1813,2013-01-22 09:15:00,
2013-01-22 03:20:00,46.4,32.9,29.35,ENE,74,0.0,0.0,59,0.00,,,0.00,LWC V2.10 B1813,2013-01-22 09:20:00,
2013-01-22 03:25:00,46.4,32.9,29.35,ENE,73,0.0,0.0,59,0.00,,,0.00,LWC V2.10 B1813,2013-01-22 09:25:00,
2013-01-22 03:30:00,46.2,32.7,29.35,ENE,73,0.0,0.0,59,0.00,,,0.00,LWC V2.10 B1813,2013-01-22 09:30:00,
2013-01-22 03:35:00,46.2,32.7,29.35,ENE,73,0.0,0.0,59,0.00,,,0.00,LWC V2.10 B1813,2013-01-22 09:35:00,
2013-01-22 03:40:00,46.2,32.7,29.35,ENE,73,0.0,0.0,59,0.00,,,0.00,LWC V2.10 B1813,2013-01-22 09:40:00,
2013-01-22 03:45:00,46.2,32.7,29.35,ENE,74,0.0,0.0,59,0.00,,,0.00,LWC V2.10 B1813,2013-01-22 09:45:00,
2013-01-22 03:50:00,46.2,32.7,29.35,ENE,74,0.0,0.0,59,0.00,,,0.00,LWC V2.10 B1813,2013-01-22 09:50:00,
2013-01-22 03:55:00,46.2,32.7,29.35,ENE,74,0.0,0.0,59,0.00,,,0.00,LWC V2.10 B1813,2013-01-22 09:55:00,
2013-01-22 04:00:00,46.0,32.9,29.35,ENE,73,0.0,0.0,60,0.00,,,0.00,LWC V2.10 B1813,2013-01-22 10:00:00,
2013-01-22 04:05:00,45.9,33.2,29.35,ENE,73,0.0,0.0,61,0.00,,,0.00,LWC V2.10 B1813,2013-01-22 10:05:00,
2013-01-22 04:10:00,45.9,33.6,29.35,NE,56,0.0,0.0,62,0.00,,,0.00,LWC V2.10 B1813,2013-01-22 10:10:00,
2013-01-22 04:15:00,45.9,33.6,29.35,NE,56,0.0,0.0,62,0.00,,,0.00,LWC V2.10 B1813,2013-01-22 10:15:00,
2013-01-22 04:20:00,45.7,33.8,29.35,NE,38,0.0,0.0,63,0.00,,,0.00,LWC V2.10 B1813,2013-01-22 10:20:00,
2013-01-22 04:25:00,45.5,33.6,29.35,NNE,25,0.0,0.0,63,0.00,,,0.00,LWC V2.10 B1813,2013-01-22 10:25:00,
2013-01-22 04:30:00,45.5,33.6,29.35,NNE,23,0.0,0.0,63,0.00,,,0.00,LWC V2.10 B1813,2013-01-22 10:30:00,
2013-01-22 04:35:00,45.5,34.0,29.35,NNE,23,0.0,0.0,64,0.00,,,0.00,LWC V2.10 B1813,2013-01-22 10:35:00,
2013-01-22 04:40:00,45.3,33.9,29.35,NNE,18,0.0,0.0,64,0.00,,,0.00,LWC V2.10 B1813,2013-01-22 10:40:00,
2013-01-22 04:45:00,45.1,33.7,29.35,North,7,0.0,0.0,64,0.00,,,0.00,LWC V2.10 B1813,2013-01-22 10:45:00,
2013-01-22 04:50:00,45.0,33.5,29.35,North,0,0.0,0.0,64,0.00,,,0.00,LWC V2.10 B1813,2013-01-22 10:50:00,
2013-01-22 04:55:00,44.6,33.2,29.35,North,357,0.0,0.0,64,0.00,,,0.00,LWC V2.10 B1813,2013-01-22 10:55:00,
2013-01-22 05:00:00,44.4,33.4,29.38,North,357,0.0,2.7,65,0.00,,,0.00,LWC V2.10 B1813,2013-01-22 11:00:00,
2013-01-22 05:05:00,44.2,33.2,29.38,NNW,330,0.0,2.7,65,0.00,,,0.00,LWC V2.10 B1813,2013-01-22 11:05:00,
2013-01-22 05:10:00,44.2,33.2,29.38,NNW,337,0.0,0.0,65,0.00,,,0.00,LWC V2.10 B1813,2013-01-22 11:10:00,
2013-01-22 05:15:00,44.1,33.1,29.38,NNW,330,0.0,0.0,65,0.00,,,0.00,LWC V2.10 B1813,2013-01-22 11:15:00,
2013-01-22 05:16:00,44.1,33.1,29.38,NNW,330,0.0,0.0,65,0.00,,,0.00,LWC V2.10 B1813,2013-01-22 11:16:00,
2013-01-22 05:21:00,44.1,33.4,29.38,NW,313,0.0,2.2,66,0.00,,,0.00,LWC V2.10 B1813,2013-01-22 11:21:00,
2013-01-22 05:26:00,44.1,33.4,29.38,NW,313,0.0,0.0,66,0.00,,,0.00,LWC V2.10 B1813,2013-01-22 11:26:00,
2013-01-22 05:31:00,43.5,33.3,29.38,WNW,299,0.0,0.0,67,0.00,,,0.00,LWC V2.10 B1813,2013-01-22 11:31:00,
2013-01-22 05:36:00,43.0,33.5,29.38,WNW,298,0.0,0.0,69,0.00,,,0.00,LWC V2.10 B1813,2013-01-22 11:36:00,
2013-01-22 05:41:00,42.6,33.9,29.38,WNW,298,0.0,0.0,71,0.00,,,0.00,LWC V2.10 B1813,2013-01-22 11:41:00,
2013-01-22 05:46:00,42.3,33.9,29.35,WNW,298,0.0,0.0,72,0.00,,,0.00,LWC V2.10 B1813,2013-01-22 11:46:00,
2013-01-22 05:51:00,42.3,34.2,29.35,WNW,298,0.0,0.0,73,0.00,,,0.00,LWC V2.10 B1813,2013-01-22 11:51:00,
2013-01-22 05:56:00,42.3,34.6,29.35,WNW,298,0.0,0.0,74,0.00,,,0.00,LWC V2.10 B1813,2013-01-22 11:56:00,
2013-01-22 06:01:00,42.3,34.6,29.35,WNW,298,0.0,0.0,74,0.00,,,0.00,LWC V2.10 B1813,2013-01-22 12:01:00,
2013-01-22 06:06:00,42.6,34.9,29.35,WNW,298,0.0,0.0,74,0.00,,,0.00,LWC V2.10 B1813,2013-01-22 12:06:00,
2013-01-22 06:11:00,42.8,35.1,29.35,WNW,298,0.0,0.0,74,0.00,,,0.00,LWC V2.10 B1813,2013-01-22 12:11:00,
2013-01-22 06:16:00,42.8,35.1,29.35,WNW,285,0.0,0.0,74,0.00,,,0.00,LWC V2.10 B1813,2013-01-22 12:16:00,
2013-01-22 06:21:00,42.8,35.1,29.35,WSW,251,0.0,3.1,74,0.00,,,0.00,LWC V2.10 B1813,2013-01-22 12:21:00,
2013-01-22 06:26:00,42.4,35.1,29.35,SW,223,0.0,3.1,75,0.00,,,0.00,LWC V2.10 B1813,2013-01-22 12:26:00,
2013-01-22 06:32:00,42.3,34.9,29.35,SW,221,0.0,0.0,75,0.00,,,0.00,LWC V2.10 B1813,2013-01-22 12:32:00,
2013-01-22 06:37:00,42.4,35.1,29.35,SW,225,2.2,2.7,75,0.00,,,0.00,LWC V2.10 B1813,2013-01-22 12:37:00,
2013-01-22 06:42:00,42.8,35.4,29.35,WSW,243,2.7,3.1,75,0.00,,,0.00,LWC V2.10 B1813,2013-01-22 12:42:00,
2013-01-22 06:47:00,42.6,35.3,29.38,WNW,283,2.2,3.1,75,0.00,,,0.00,LWC V2.10 B1813,2013-01-22 12:47:00,
2013-01-22 06:52:00,42.6,35.3,29.38,NW,322,0.0,2.7,75,0.00,,,0.00,LWC V2.10 B1813,2013-01-22 12:52:00,
2013-01-22 06:57:00,42.4,35.1,29.38,NNW,348,0.0,0.0,75,0.00,,,0.00,LWC V2.10 B1813,2013-01-22 12:57:00,
2013-01-22 07:02:00,42.3,34.9,29.38,NNW,348,0.0,0.0,75,0.00,,,0.00,LWC V2.10 B1813,2013-01-22 13:02:00,
2013-01-22 07:07:00,41.7,34.4,29.38,NNW,348,0.0,0.0,75,0.00,,,0.00,LWC V2.10 B1813,2013-01-22 13:07:00,
2013-01-22 07:12:00,41.5,34.2,29.38,NNW,348,0.0,0.0,75,0.00,,,0.00,LWC V2.10 B1813,2013-01-22 13:12:00,
2013-01-22 07:17:00,41.7,34.7,29.38,NNW,348,0.0,0.0,76,0.00,,,0.00,LWC V2.10 B1813,2013-01-22 13:17:00,
2013-01-22 07:21:00,41.7,34.7,29.38,NNW,348,0.0,0.0,76,0.00,,,0.00,LWC V2.10 B1813,2013-01-22 13:21:00,
2013-01-22 07:26:00,41.5,34.5,29.38,NNW,348,0.0,0.0,76,0.00,,,0.00,LWC V2.10 B1813,2013-01-22 13:26:00,
2013-01-22 07:31:00,41.7,35.0,29.38,NNW,348,0.0,0.0,77,0.00,,,0.00,LWC V2.10 B1813,2013-01-22 13:31:00,
2013-01-22 07:36:00,41.9,35.2,29.38,NNW,348,0.0,0.0,77,0.00,,,0.00,LWC V2.10 B1813,2013-01-22 13:36:00,
2013-01-22 07:41:00,42.3,35.6,29.38,North,10,2.7,3.6,77,0.00,,,0.00,LWC V2.10 B1813,2013-01-22 13:41:00,
2013-01-22 07:46:00,42.3,35.6,29.38,North,4,0.0,0.0,77,0.00,,,0.00,LWC V2.10 B1813,2013-01-22 13:46:00,
2013-01-22 07:51:00,42.3,35.6,29.38,North,5,0.0,0.0,77,0.00,,,0.00,LWC V2.10 B1813,2013-01-22 13:51:00,
2013-01-22 07:56:00,42.3,35.6,29.38,North,5,0.0,0.0,77,0.00,,,0.00,LWC V2.10 B1813,2013-01-22 13:56:00,
2013-01-22 08:01:00,42.4,35.7,29.38,North,5,0.0,0.0,77,0.00,,,0.00,LWC V2.10 B1813,2013-01-22 14:01:00,
2013-01-22 08:06:00,43.0,35.9,29.38,North,357,0.0,0.0,76,0.00,,,0.00,LWC V2.10 B1813,2013-01-22 14:06:00,
2013-01-22 08:11:00,43.3,36.3,29.38,NNW,327,2.7,3.1,76,0.00,,,0.00,LWC V2.10 B1813,2013-01-22 14:11:00,
2013-01-22 08:16:00,43.3,36.0,29.38,NNW,337,0.0,2.2,75,0.00,,,0.00,LWC V2.10 B1813,2013-01-22 14:16:00,
2013-01-22 08:21:00,43.3,36.0,29.38,NW,322,2.7,3.1,75,0.00,,,0.00,LWC V2.10 B1813,2013-01-22 14:21:00,
2013-01-22 08:26:00,42.8,35.1,29.38,NNW,338,0.0,2.7,74,0.00,,,0.00,LWC V2.10 B1813,2013-01-22 14:26:00,
2013-01-22 08:31:00,43.3,36.0,29.38,NNW,333,2.2,2.7,75,0.00,,,0.00,LWC V2.10 B1813,2013-01-22 14:31:00,
2013-01-22 08:36:00,44.1,36.7,29.38,WNW,301,0.0,2.7,75,0.00,,,0.00,LWC V2.10 B1813,2013-01-22 14:36:00,
2013-01-22 08:41:00,44.2,36.5,29.38,WNW,301,0.0,0.0,74,0.00,,,0.00,LWC V2.10 B1813,2013-01-22 14:41:00,
2013-01-22 08:46:00,44.6,36.5,29.38,WNW,301,0.0,0.0,73,0.00,,,0.00,LWC V2.10 B1813,2013-01-22 14:46:00,
2013-01-22 08:51:00,45.0,36.8,29.38,WNW,297,0.0,0.0,73,0.00,,,0.00,LWC V2.10 B1813,2013-01-22 14:51:00,
2013-01-22 08:56:00,45.1,37.0,29.38,WNW,297,0.0,0.0,73,0.00,,,0.00,LWC V2.10 B1813,2013-01-22 14:56:00,
2013-01-22 09:01:00,45.0,36.5,29.38,WNW,297,0.0,2.2,72,0.00,,,0.00,LWC V2.10 B1813,2013-01-22 15:01:00,
2013-01-22 09:06:00,45.0,36.5,29.38,NW,321,3.1,3.1,72,0.00,,,0.00,LWC V2.10 B1813,2013-01-22 15:06:00,
2013-01-22 09:11:00,45.1,36.3,29.38,NW,321,0.0,0.0,71,0.00,,,0.00,LWC V2.10 B1813,2013-01-22 15:11:00,
2013-01-22 09:16:00,45.3,36.5,29.41,NNW,344,0.0,2.7,71,0.00,,,0.00,LWC V2.10 B1813,2013-01-22 15:16:00,
2013-01-22 09:21:00,46.2,37.3,29.41,NNW,332,0.0,0.0,71,0.00,,,0.00,LWC V2.10 B1813,2013-01-22 15:21:00,
2013-01-22 09:26:00,47.1,37.5,29.41,NNW,335,0.0,0.0,69,0.00,,,0.00,LWC V2.10 B1813,2013-01-22 15:26:00,
2013-01-22 09:31:00,47.7,37.6,29.41,NNW,330,0.0,2.7,68,0.00,,,0.00,LWC V2.10 B1813,2013-01-22 15:31:00,
2013-01-22 09:36:00,48.4,37.6,29.41,NNW,337,0.0,0.0,66,0.00,,,0.00,LWC V2.10 B1813,2013-01-22 15:36:00,
2013-01-22 09:41:00,48.6,37.7,29.41,West,279,0.0,0.0,66,0.00,,,0.00,LWC V2.10 B1813,2013-01-22 15:41:00,
2013-01-22 09:46:00,48.9,38.1,29.41,West,279,0.0,0.0,66,0.00,,,0.00,LWC V2.10 B1813,2013-01-22 15:46:00,
2013-01-22 09:51:00,49.6,38.8,29.41,West,276,0.0,0.0,66,0.00,,,0.00,LWC V2.10 B1813,2013-01-22 15:51:00,
2013-01-22 09:56:00,50.0,38.3,29.41,WNW,301,0.0,0.0,64,0.00,,,0.00,LWC V2.10 B1813,2013-01-22 15:56:00,
2013-01-22 10:01:00,49.8,37.7,29.41,WNW,297,0.0,0.0,63,0.00,,,0.00,LWC V2.10 B1813,2013-01-22 16:01:00,
2013-01-22 10:06:00,50.0,37.5,29.41,NW,305,0.0,0.0,62,0.00,,,0.00,LWC V2.10 B1813,2013-01-22 16:06:00,
2013-01-22 10:11:00,50.4,37.8,29.41,West,271,2.7,3.1,62,0.00,,,0.00,LWC V2.10 B1813,2013-01-22 16:11:00,
2013-01-22 10:16:00,50.2,37.3,29.41,SSW,193,3.1,3.1,61,0.00,,,0.00,LWC V2.10 B1813,2013-01-22 16:16:00,
2013-01-22 10:21:00,51.1,38.5,29.41,ESE,102,3.6,3.6,62,0.00,,,0.00,LWC V2.10 B1813,2013-01-22 16:21:00,
2013-01-22 10:26:00,52.0,39.0,29.41,East,79,3.6,4.9,61,0.00,,,0.00,LWC V2.10 B1813,2013-01-22 16:26:00,
2013-01-22 10:31:00,53.1,39.5,29.41,ENE,68,3.1,4.9,60,0.00,,,0.00,LWC V2.10 B1813,2013-01-22 16:31:00,
2013-01-22 10:36:00,54.3,40.3,29.41,East,79,0.0,3.6,59,0.00,,,0.00,LWC V2.10 B1813,2013-01-22 16:36:00,
2013-01-22 10:41:00,55.4,40.9,29.41,East,82,4.0,4.9,58,0.00,,,0.00,LWC V2.10 B1813,2013-01-22 16:41:00,
2013-01-22 10:46:00,55.9,40.9,29.41,NE,48,0.0,4.0,57,0.00,,,0.00,LWC V2.10 B1813,2013-01-22 16:46:00,
2013-01-22 10:51:00,56.3,40.8,29.41,NE,40,3.6,4.9,56,0.00,,,0.00,LWC V2.10 B1813,2013-01-22 16:51:00,
2013-01-22 10:56:00,56.7,41.1,29.41,NNE,33,2.7,4.9,56,0.00,,,0.00,LWC V2.10 B1813,2013-01-22 16:56:00,
2013-01-22 11:01:00,56.3,40.3,29.41,ESE,103,6.3,6.3,55,0.00,,,0.00,LWC V2.10 B1813,2013-01-22 17:01:00,
2013-01-22 11:06:00,55.9,40.0,29.41,ENE,71,5.4,6.3,55,0.00,,,0.00,LWC V2.10 B1813,2013-01-22 17:06:00,
2013-01-22 11:11:00,55.8,40.3,29.41,SE,135,5.4,6.7,56,0.00,,,0.00,LWC V2.10 B1813,2013-01-22 17:11:00,
2013-01-22 11:16:00,55.8,40.3,29.41,SE,138,3.1,6.3,56,0.00,,,0.00,LWC V2.10 B1813,2013-01-22 17:16:00,
2013-01-22 11:21:00,55.9,40.5,29.41,South,169,2.7,6.3,56,0.00,,,0.00,LWC V2.10 B1813,2013-01-22 17:21:00,
2013-01-22 11:26:00,57.4,41.8,29.41,SSE,150,3.6,3.6,56,0.00,,,0.00,LWC V2.10 B1813,2013-01-22 17:26:00,
2013-01-22 11:31:00,58.1,41.5,29.41,SSE,167,4.9,8.1,54,0.00,,,0.00,LWC V2.10 B1813,2013-01-22 17:31:00,
2013-01-22 11:36:00,58.5,41.9,29.41,South,176,2.7,5.4,54,0.00,,,0.00,LWC V2.10 B1813,2013-01-22 17:36:00,
2013-01-22 11:41:00,58.8,41.7,29.41,ESE,116,3.1,4.9,53,0.00,,,0.00,LWC V2.10 B1813,2013-01-22 17:41:00,
2013-01-22 11:46:00,58.8,41.7,29.41,SE,136,2.2,3.6,53,0.00,,,0.00,LWC V2.10 B1813,2013-01-22 17:46:00,
2013-01-22 11:51:00,59.4,42.2,29.41,SSE,160,0.0,4.0,53,0.00,,,0.00,LWC V2.10 B1813,2013-01-22 17:51:00,
2013-01-22 11:56:00,60.6,42.9,29.41,East,83,2.7,4.0,52,0.00,,,0.00,LWC V2.10 B1813,2013-01-22 17:56:00,
2013-01-22 12:01:00,61.7,43.9,29.38,South,184,3.6,3.6,52,0.00,,,0.00,LWC V2.10 B1813,2013-01-22 18:01:00,
2013-01-22 12:06:00,62.4,44.0,29.38,SW,236,3.1,3.6,51,0.00,,,0.00,LWC V2.10 B1813,2013-01-22 18:06:00,
2013-01-22 12:11:00,62.1,43.7,29.38,SE,146,3.6,4.9,51,0.00,,,0.00,LWC V2.10 B1813,2013-01-22 18:11:00,
2013-01-22 12:16:00,62.2,43.4,29.38,South,184,0.0,3.6,50,0.00,,,0.00,LWC V2.10 B1813,2013-01-22 18:16:00,
2013-01-22 12:21:00,63.1,44.2,29.38,SSE,166,0.0,5.8,50,0.00,,,0.00,LWC V2.10 B1813,2013-01-22 18:21:00,
2013-01-22 12:27:00,64.2,45.2,29.38,SSE,155,5.4,6.3,50,0.00,,,0.00,LWC V2.10 B1813,2013-01-22 18:27:00,
2013-01-22 12:32:00,64.4,44.8,29.38,SSE,168,3.6,6.3,49,0.00,,,0.00,LWC V2.10 B1813,2013-01-22 18:32:00,
2013-01-22 12:37:00,64.2,45.2,29.38,East,81,0.0,3.6,50,0.00,,,0.00,LWC V2.10 B1813,2013-01-22 18:37:00,
2013-01-22 12:42:00,63.9,44.9,29.38,ENE,74,4.0,5.4,50,0.00,,,0.00,LWC V2.10 B1813,2013-01-22 18:42:00,
2013-01-22 12:47:00,63.9,44.9,29.35,South,180,6.3,6.3,50,0.00,,,0.00,LWC V2.10 B1813,2013-01-22 18:47:00,
2013-01-22 12:52:00,64.2,45.2,29.35,ENE,57,2.7,5.4,50,0.00,,,0.00,LWC V2.10 B1813,2013-01-22 18:52:00,
2013-01-22 12:57:00,66.4,46.6,29.35,East,88,2.7,5.4,49,0.00,,,0.00,LWC V2.10 B1813,2013-01-22 18:57:00,
2013-01-22 13:02:00,68.0,47.6,29.35,SW,218,5.4,6.3,48,0.00,,,0.00,LWC V2.10 B1813,2013-01-22 19:02:00,
2013-01-22 13:07:00,68.2,47.2,29.35,South,177,3.6,8.7,47,0.00,,,0.00,LWC V2.10 B1813,2013-01-22 19:07:00,
2013-01-22 13:12:00,68.9,47.8,29.35,SSW,203,5.4,6.7,47,0.00,,,0.00,LWC V2.10 B1813,2013-01-22 19:12:00,
2013-01-22 13:17:00,68.4,46.8,29.35,SSW,205,6.7,10.5,46,0.00,,,0.00,LWC V2.10 B1813,2013-01-22 19:17:00,
2013-01-22 13:22:00,68.4,46.8,29.35,SSW,202,5.8,8.3,46,0.00,,,0.00,LWC V2.10 B1813,2013-01-22 19:22:00,
2013-01-22 13:27:00,69.3,47.6,29.35,South,181,5.4,8.1,46,0.00,,,0.00,LWC V2.10 B1813,2013-01-22 19:27:00,
2013-01-22 13:32:00,69.4,47.7,29.32,ESE,122,5.8,10.1,46,0.00,,,0.00,LWC V2.10 B1813,2013-01-22 19:32:00,
2013-01-22 13:37:00,69.1,46.8,29.32,South,189,7.6,11.0,45,0.00,,,0.00,LWC V2.10 B1813,2013-01-22 19:37:00,
2013-01-22 13:42:00,69.4,47.2,29.32,SW,219,12.3,12.3,45,0.00,,,0.00,LWC V2.10 B1813,2013-01-22 19:42:00,
2013-01-22 13:47:00,70.0,47.7,29.32,SSW,207,7.6,7.6,45,0.00,,,0.00,LWC V2.10 B1813,2013-01-22 19:47:00,
2013-01-22 13:52:00,69.8,46.9,29.32,SSW,198,4.0,8.7,44,0.00,,,0.00,LWC V2.10 B1813,2013-01-22 19:52:00,
2013-01-22 13:57:00,69.8,46.9,29.32,South,179,5.8,7.6,44,0.00,,,0.00,LWC V2.10 B1813,2013-01-22 19:57:00,
2013-01-22 14:02:00,70.2,47.8,29.29,South,172,3.1,5.8,45,0.00,,,0.00,LWC V2.10 B1813,2013-01-22 20:02:00,
2013-01-22 14:07:00,70.3,47.4,29.29,SW,219,5.8,6.3,44,0.00,,,0.00,LWC V2.10 B1813,2013-01-22 20:07:00,
2013-01-22 14:12:00,70.3,47.4,29.29,SSE,166,9.2,9.2,44,0.00,,,0.00,LWC V2.10 B1813,2013-01-22 20:12:00,
2013-01-22 14:17:00,70.2,47.2,29.32,South,183,7.6,11.0,44,0.00,,,0.00,LWC V2.10 B1813,2013-01-22 20:17:00,
2013-01-22 14:22:00,70.3,47.4,29.32,South,188,5.8,7.6,44,0.00,,,0.00,LWC V2.10 B1813,2013-01-22 20:22:00,
2013-01-22 14:27:00,70.3,47.4,29.32,South,173,8.1,8.1,44,0.00,,,0.00,LWC V2.10 B1813,2013-01-22 20:27:00,
2013-01-22 14:32:00,69.8,46.9,29.32,South,181,8.3,8.3,44,0.00,,,0.00,LWC V2.10 B1813,2013-01-22 20:32:00,
2013-01-22 14:37:00,70.3,47.4,29.32,SSW,204,3.1,10.1,44,0.00,,,0.00,LWC V2.10 B1813,2013-01-22 20:37:00,
2013-01-22 14:42:00,70.0,46.4,29.32,SSE,160,4.0,8.3,43,0.00,,,0.00,LWC V2.10 B1813,2013-01-22 20:42:00,
2013-01-22 14:47:00,70.5,46.9,29.32,SW,227,7.6,7.6,43,0.00,,,0.00,LWC V2.10 B1813,2013-01-22 20:47:00,
2013-01-22 14:52:00,70.5,46.9,29.32,South,187,5.4,6.3,43,0.00,,,0.00,LWC V2.10 B1813,2013-01-22 20:52:00,
2013-01-22 14:57:00,70.7,47.1,29.32,SE,138,7.6,8.7,43,0.00,,,0.00,LWC V2.10 B1813,2013-01-22 20:57:00,
2013-01-22 15:02:00,70.5,46.9,29.29,SW,218,5.4,5.4,43,0.00,,,0.00,LWC V2.10 B1813,2013-01-22 21:02:00,
2013-01-22 15:07:00,71.1,47.4,29.29,SSE,148,6.3,9.6,43,0.00,,,0.00,LWC V2.10 B1813,2013-01-22 21:07:00,
2013-01-22 15:12:00,71.1,47.4,29.29,SSW,196,6.3,12.3,43,0.00,,,0.00,LWC V2.10 B1813,2013-01-22 21:12:00,
2013-01-22 15:17:00,70.9,47.3,29.32,SW,225,5.8,6.7,43,0.00,,,0.00,LWC V2.10 B1813,2013-01-22 21:17:00,
2013-01-22 15:22:00,71.1,47.4,29.32,SSE,165,4.0,6.7,43,0.00,,,0.00,LWC V2.10 B1813,2013-01-22 21:22:00,
2013-01-22 15:27:00,71.1,47.4,29.32,SSW,211,5.4,8.7,43,0.00,,,0.00,LWC V2.10 B1813,2013-01-22 21:27:00,
2013-01-22 15:32:00,71.2,47.6,29.32,SSW,205,5.8,7.6,43,0.00,,,0.00,LWC V2.10 B1813,2013-01-22 21:32:00,
2013-01-22 15:37:00,70.9,47.3,29.32,SSW,196,6.3,10.1,43,0.00,,,0.00,LWC V2.10 B1813,2013-01-22 21:37:00,
2013-01-22 15:42:00,70.9,47.3,29.32,South,184,5.4,5.4,43,0.00,,,0.00,LWC V2.10 B1813,2013-01-22 21:42:00,
2013-01-22 15:47:00,70.7,47.1,29.32,SSW,212,5.8,12.3,43,0.00,,,0.00,LWC V2.10 B1813,2013-01-22 21:47:00,
2013-01-22 15:52:00,71.1,47.4,29.32,South,184,3.6,6.3,43,0.00,,,0.00,LWC V2.10 B1813,2013-01-22 21:52:00,
2013-01-22 15:57:00,71.2,47.6,29.32,SSW,200,3.1,5.8,43,0.00,,,0.00,LWC V2.10 B1813,2013-01-22 21:57:00,
2013-01-22 16:02:00,71.1,47.4,29.32,SE,135,7.6,7.6,43,0.00,,,0.00,LWC V2.10 B1813,2013-01-22 22:02:00,
2013-01-22 16:07:00,70.5,46.9,29.32,South,169,8.1,12.3,43,0.00,,,0.00,LWC V2.10 B1813,2013-01-22 22:07:00,
2013-01-22 16:12:00,70.5,46.9,29.32,SE,136,7.2,8.7,43,0.00,,,0.00,LWC V2.10 B1813,2013-01-22 22:12:00,
2013-01-22 16:17:00,70.9,47.3,29.29,SW,231,5.4,9.6,43,0.00,,,0.00,LWC V2.10 B1813,2013-01-22 22:17:00,
2013-01-22 16:22:00,70.5,46.9,29.29,South,186,5.4,8.7,43,0.00,,,0.00,LWC V2.10 B1813,2013-01-22 22:22:00,
2013-01-22 16:27:00,70.5,46.9,29.29,SSW,205,5.8,8.1,43,0.00,,,0.00,LWC V2.10 B1813,2013-01-22 22:27:00,
2013-01-22 16:32:00,70.5,46.9,29.32,SSE,152,4.9,10.5,43,0.00,,,0.00,LWC V2.10 B1813,2013-01-22 22:32:00,
2013-01-22 16:37:00,70.3,46.8,29.32,SSE,164,3.6,10.1,43,0.00,,,0.00,LWC V2.10 B1813,2013-01-22 22:37:00,
2013-01-22 16:42:00,70.5,46.9,29.32,SSE,160,10.1,10.1,43,0.00,,,0.00,LWC V2.10 B1813,2013-01-22 22:42:00,
2013-01-22 16:47:00,70.3,46.8,29.32,South,190,3.1,7.6,43,0.00,,,0.00,LWC V2.10 B1813,2013-01-22 22:47:00,
2013-01-22 16:52:00,70.3,46.8,29.32,SSW,197,4.0,6.3,43,0.00,,,0.00,LWC V2.10 B1813,2013-01-22 22:52:00,
2013-01-22 16:57:00,70.3,47.4,29.32,South,187,5.4,5.4,44,0.00,,,0.00,LWC V2.10 B1813,2013-01-22 22:57:00,
2013-01-22 17:02:00,70.0,46.4,29.32,SSE,155,4.5,7.6,43,0.00,,,0.00,LWC V2.10 B1813,2013-01-22 23:02:00,
2013-01-22 17:07:00,70.0,46.4,29.32,South,174,3.1,10.1,43,0.00,,,0.00,LWC V2.10 B1813,2013-01-22 23:07:00,
2013-01-22 17:12:00,69.6,46.7,29.32,SSW,203,3.6,8.1,44,0.00,,,0.00,LWC V2.10 B1813,2013-01-22 23:12:00,
2013-01-22 17:17:00,69.6,46.7,29.32,South,185,3.6,6.3,44,0.00,,,0.00,LWC V2.10 B1813,2013-01-22 23:17:00,
2013-01-22 17:22:00,69.4,46.6,29.32,South,181,3.6,7.2,44,0.00,,,0.00,LWC V2.10 B1813,2013-01-22 23:22:00,
2013-01-22 17:27:00,69.1,46.2,29.32,South,190,4.0,6.3,44,0.00,,,0.00,LWC V2.10 B1813,2013-01-22 23:27:00,
2013-01-22 17:32:00,68.7,45.9,29.32,South,185,6.3,6.3,44,0.00,,,0.00,LWC V2.10 B1813,2013-01-22 23:32:00,
2013-01-22 17:37:00,68.5,45.8,29.32,South,183,6.3,6.3,44,0.00,,,0.00,LWC V2.10 B1813,2013-01-22 23:37:00,
2013-01-22 17:42:00,68.2,45.4,29.32,SSE,161,4.0,5.4,44,0.00,,,0.00,LWC V2.10 B1813,2013-01-22 23:42:00,
2013-01-22 17:47:00,67.6,45.5,29.29,SSW,198,4.0,5.4,45,0.00,,,0.00,LWC V2.10 B1813,2013-01-22 23:47:00,
2013-01-22 17:52:00,67.3,45.2,29.29,SSW,209,4.0,8.1,45,0.00,,,0.00,LWC V2.10 B1813,2013-01-22 23:52:00,
2013-01-22 17:57:00,66.9,44.9,29.29,SSW,196,6.3,8.1,45,0.00,,,0.00,LWC V2.10 B1813,2013-01-22 23:57:00,
2013-01-22 18:02:00,66.6,45.1,29.29,South,176,2.7,6.3,46,0.00,,,0.00,LWC V2.10 B1813,2013-01-23 00:02:00,
2013-01-22 18:07:00,66.4,45.0,29.29,South,178,6.3,6.3,46,0.00,,,0.00,LWC V2.10 B1813,2013-01-23 00:07:00,
2013-01-22 18:12:00,66.2,44.8,29.29,South,182,3.1,6.3,46,0.00,,,0.00,LWC V2.10 B1813,2013-01-23 00:12:00,
2013-01-22 18:17:00,66.0,45.2,29.29,SSE,160,5.4,5.4,47,0.00,,,0.00,LWC V2.10 B1813,2013-01-23 00:17:00,
2013-01-22 18:22:00,65.8,45.0,29.29,SSE,157,4.5,5.4,47,0.00,,,0.00,LWC V2.10 B1813,2013-01-23 00:22:00,
2013-01-22 18:27:00,65.7,44.9,29.29,South,180,5.4,6.3,47,0.00,,,0.00,LWC V2.10 B1813,2013-01-23 00:27:00,
2013-01-22 18:32:00,65.5,44.7,29.32,SSE,157,3.1,5.8,47,0.00,,,0.00,LWC V2.10 B1813,2013-01-23 00:32:00,
2013-01-22 18:37:00,65.3,44.5,29.32,South,182,6.3,6.3,47,0.00,,,0.00,LWC V2.10 B1813,2013-01-23 00:37:00,
2013-01-22 18:42:00,64.9,44.8,29.32,SSE,158,4.0,5.8,48,0.00,,,0.00,LWC V2.10 B1813,2013-01-23 00:42:00,
2013-01-22 18:47:00,64.8,44.6,29.32,SSE,167,5.4,5.4,48,0.00,,,0.00,LWC V2.10 B1813,2013-01-23 00:47:00,
2013-01-22 18:52:00,64.6,44.4,29.32,South,185,3.6,5.4,48,0.00,,,0.00,LWC V2.10 B1813,2013-01-23 00:52:00,
2013-01-22 18:57:00,64.4,44.8,29.32,South,182,3.1,4.9,49,0.00,,,0.00,LWC V2.10 B1813,2013-01-23 00:57:00,
2013-01-22 19:02:00,64.0,44.5,29.32,South,170,3.1,4.0,49,0.00,,,0.00,LWC V2.10 B1813,2013-01-23 01:02:00,
2013-01-22 19:07:00,63.7,44.7,29.32,South,178,3.6,4.9,50,0.00,,,0.00,LWC V2.10 B1813,2013-01-23 01:07:00,
2013-01-22 19:12:00,63.7,44.7,29.32,South,176,4.0,4.0,50,0.00,,,0.00,LWC V2.10 B1813,2013-01-23 01:12:00,
2013-01-22 19:17:00,63.3,44.4,29.32,SSE,160,2.2,4.0,50,0.00,,,0.00,LWC V2.10 B1813,2013-01-23 01:17:00,
2013-01-22 19:22:00,63.3,44.9,29.32,South,172,4.0,4.0,51,0.00,,,0.00,LWC V2.10 B1813,2013-01-23 01:22:00,
2013-01-22 19:27:00,63.5,45.0,29.32,SSW,207,3.6,5.4,51,0.00,,,0.00,LWC V2.10 B1813,2013-01-23 01:27:00,
2013-01-22 19:32:00,63.3,44.9,29.32,SSE,167,3.6,4.0,51,0.00,,,0.00,LWC V2.10 B1813,2013-01-23 01:32:00,
2013-01-22 19:37:00,63.1,44.7,29.32,South,179,2.7,4.0,51,0.00,,,0.00,LWC V2.10 B1813,2013-01-23 01:37:00,
2013-01-22 19:42:00,63.1,44.7,29.32,South,189,4.9,5.4,51,0.00,,,0.00,LWC V2.10 B1813,2013-01-23 01:42:00,
2013-01-22 19:47:00,63.1,45.2,29.32,SSE,154,3.1,5.4,52,0.00,,,0.00,LWC V2.10 B1813,2013-01-23 01:47:00,
2013-01-22 19:52:00,63.1,45.2,29.32,SSE,149,4.0,4.5,52,0.00,,,0.00,LWC V2.10 B1813,2013-01-23 01:52:00,
2013-01-22 19:57:00,63.0,45.1,29.32,SE,139,3.6,4.0,52,0.00,,,0.00,LWC V2.10 B1813,2013-01-23 01:57:00,
2013-01-22 20:02:00,62.6,44.7,29.32,SE,125,0.0,4.9,52,0.00,,,0.00,LWC V2.10 B1813,2013-01-23 02:02:00,
2013-01-22 20:07:00,62.2,44.9,29.32,SE,131,0.0,3.6,53,0.00,,,0.00,LWC V2.10 B1813,2013-01-23 02:07:00,
2013-01-22 20:12:00,61.7,44.4,29.32,SSE,148,2.7,4.0,53,0.00,,,0.00,LWC V2.10 B1813,2013-01-23 02:12:00,
2013-01-22 20:17:00,61.7,44.9,29.32,ESE,103,3.1,3.6,54,0.00,,,0.00,LWC V2.10 B1813,2013-01-23 02:17:00,
2013-01-22 20:22:00,61.3,44.5,29.32,ESE,103,3.6,3.6,54,0.00,,,0.00,LWC V2.10 B1813,2013-01-23 02:22:00,
2013-01-22 20:27:00,61.2,44.4,29.32,ESE,107,4.0,4.9,54,0.00,,,0.00,LWC V2.10 B1813,2013-01-23 02:27:00,
2013-01-22 20:32:00,61.2,44.9,29.32,East,90,5.4,5.4,55,0.00,,,0.00,LWC V2.10 B1813,2013-01-23 02:32:00,
2013-01-22 20:37:00,61.0,44.7,29.32,ESE,102,4.0,4.9,55,0.00,,,0.00,LWC V2.10 B1813,2013-01-23 02:37:00,
2013-01-22 20:42:00,60.8,45.0,29.32,SE,127,4.9,5.8,56,0.00,,,0.00,LWC V2.10 B1813,2013-01-23 02:42:00,
2013-01-22 20:47:00,60.6,45.3,29.32,SE,136,3.6,4.0,57,0.00,,,0.00,LWC V2.10 B1813,2013-01-23 02:47:00,
2013-01-22 20:52:00,60.4,45.1,29.32,SE,142,4.0,5.4,57,0.00,,,0.00,LWC V2.10 B1813,2013-01-23 02:52:00,
2013-01-22 20:57:00,60.8,45.9,29.32,ESE,117,4.0,6.7,58,0.00,,,0.00,LWC V2.10 B1813,2013-01-23 02:57:00,
2013-01-22 21:02:00,61.2,45.8,29.32,SE,135,4.9,4.9,57,0.00,,,0.00,LWC V2.10 B1813,2013-01-23 03:02:00,
2013-01-22 21:07:00,60.6,45.8,29.32,ESE,116,5.4,6.3,58,0.00,,,0.00,LWC V2.10 B1813,2013-01-23 03:07:00,
2013-01-22 21:13:00,60.3,45.4,29.32,SE,136,5.8,5.8,58,0.00,,,0.00,LWC V2.10 B1813,2013-01-23 03:13:00,
2013-01-22 21:18:00,59.9,45.5,29.32,SSE,164,5.8,7.2,59,0.00,,,0.00,LWC V2.10 B1813,2013-01-23 03:18:00,
2013-01-22 21:23:00,59.7,45.8,29.32,SE,130,5.8,7.6,60,0.00,,,0.00,LWC V2.10 B1813,2013-01-23 03:23:00,
2013-01-22 21:28:00,59.9,46.4,29.32,East,80,5.4,9.2,61,0.00,,,0.00,LWC V2.10 B1813,2013-01-23 03:28:00,
2013-01-22 21:33:00,59.9,46.4,29.32,SE,125,7.6,8.3,61,0.00,,,0.00,LWC V2.10 B1813,2013-01-23 03:33:00,
2013-01-22 21:38:00,59.7,46.7,29.32,SE,134,4.9,8.3,62,0.00,,,0.00,LWC V2.10 B1813,2013-01-23 03:38:00,
2013-01-22 21:43:00,59.5,46.5,29.32,SE,126,8.1,8.1,62,0.00,,,0.00,LWC V2.10 B1813,2013-01-23 03:43:00,
2013-01-22 21:48:00,59.5,46.9,29.35,ESE,118,4.9,8.1,63,0.00,,,0.00,LWC V2.10 B1813,2013-01-23 03:48:00,
2013-01-22 21:53:00,59.2,46.6,29.35,SE,141,5.4,5.4,63,0.00,,,0.00,LWC V2.10 B1813,2013-01-23 03:53:00,
2013-01-22 21:58:00,59.2,47.0,29.35,ESE,115,8.1,8.7,64,0.00,,,0.00,LWC V2.10 B1813,2013-01-23 03:58:00,
2013-01-22 22:03:00,59.0,47.2,29.35,SE,129,5.4,8.1,65,0.00,,,0.00,LWC V2.10 B1813,2013-01-23 04:03:00,
2013-01-22 22:08:00,59.0,47.2,29.35,SE,145,5.4,8.1,65,0.00,,,0.00,LWC V2.10 B1813,2013-01-23 04:08:00,
2013-01-22 22:13:00,59.0,47.7,29.35,South,183,3.1,8.1,66,0.00,,,0.00,LWC V2.10 B1813,2013-01-23 04:13:00,
2013-01-22 22:18:00,58.8,47.9,29.35,SE,143,7.6,8.7,67,0.00,,,0.00,LWC V2.10 B1813,2013-01-23 04:18:00,
2013-01-22 22:23:00,58.8,47.9,29.35,SE,144,8.1,8.3,67,0.00,,,0.00,LWC V2.10 B1813,2013-01-23 04:23:00,
2013-01-22 22:28:00,59.0,48.1,29.35,SE,146,8.7,10.5,67,0.00,,,0.00,LWC V2.10 B1813,2013-01-23 04:28:00,
2013-01-22 22:33:00,59.0,48.1,29.35,SE,136,6.3,10.1,67,0.00,,,0.00,LWC V2.10 B1813,2013-01-23 04:33:00,
2013-01-22 22:38:00,59.0,48.1,29.35,South,186,4.5,8.7,67,0.00,,,0.00,LWC V2.10 B1813,2013-01-23 04:38:00,
2013-01-22 22:43:00,58.8,47.9,29.35,SE,144,6.3,8.1,67,0.00,,,0.00,LWC V2.10 B1813,2013-01-23 04:43:00,
2013-01-22 22:48:00,59.0,48.1,29.35,SSE,155,8.3,8.3,67,0.00,,,0.00,LWC V2.10 B1813,2013-01-23 04:48:00,
2013-01-22 22:53:00,58.8,47.9,29.35,South,180,5.8,7.6,67,0.00,,,0.00,LWC V2.10 B1813,2013-01-23 04:53:00,
2013-01-22 22:58:00,58.8,48.3,29.35,SE,137,6.3,10.1,68,0.00,,,0.00,LWC V2.10 B1813,2013-01-23 04:58:00,
2013-01-22 23:00:00,58.8,48.3,29.35,SSE,159,4.0,8.7,68,0.00,,,0.00,LWC V2.10 B1813,2013-01-23 05:00:00,
2013-01-22 23:01:00,58.8,48.3,29.35,SSE,158,7.6,8.7,68,0.00,,,0.00,LWC V2.10 B1813,2013-01-23 05:01:00,
2013-01-22 23:02:00,58.8,48.3,29.35,South,169,8.7,10.5,68,0.00,,,0.00,LWC V2.10 B1813,2013-01-23 05:02:00,
2013-01-22 23:07:00,58.8,48.3,29.35,SW,216,8.1,8.1,68,0.00,,,0.00,LWC V2.10 B1813,2013-01-23 05:07:00,
2013-01-22 23:12:00,58.8,48.3,29.35,South,171,8.3,9.6,68,0.00,,,0.00,LWC V2.10 B1813,2013-01-23 05:12:00,
2013-01-22 23:17:00,58.8,48.3,29.35,SSW,209,5.8,6.3,68,0.00,,,0.00,LWC V2.10 B1813,2013-01-23 05:17:00,
2013-01-22 23:22:00,58.6,48.1,29.35,SE,145,8.1,8.3,68,0.00,,,0.00,LWC V2.10 B1813,2013-01-23 05:22:00,
2013-01-22 23:27:00,58.5,47.9,29.35,SSE,162,6.3,6.3,68,0.00,,,0.00,LWC V2.10 B1813,2013-01-23 05:27:00,
2013-01-22 23:32:00,58.3,47.8,29.38,SSE,148,2.7,8.3,68,0.00,,,0.00,LWC V2.10 B1813,2013-01-23 05:32:00,
2013-01-22 23:37:00,58.1,48.0,29.38,SSE,161,7.6,10.1,69,0.00,,,0.00,LWC V2.10 B1813,2013-01-23 05:37:00,
2013-01-22 23:42:00,58.1,48.0,29.38,SSE,165,7.6,7.6,69,0.00,,,0.00,LWC V2.10 B1813,2013-01-23 05:42:00,
2013-01-22 23:47:00,57.9,47.8,29.38,SE,142,3.1,8.3,69,0.00,,,0.00,LWC V2.10 B1813,2013-01-23 05:47:00,
2013-01-22 23:52:00,57.7,47.6,29.38,SE,135,8.1,8.1,69,0.00,,,0.00,LWC V2.10 B1813,2013-01-23 05:52:00,
2013-01-22 23:57:00,57.6,47.8,29.38,SE,135,4.0,5.4,70,0.00,,,0.00,LWC V2.10 B1813,2013-01-23 05:57:00,